Regional Weather Roundup
Issued by NWS

Home | Current Version | Previous Version | Graphics & Text | Print | Product List | Glossary On
Versions: 1 2 3 4 5 6 7 8 9 10 11 12 13 14 15 16 17 18 19 20 21 22 23 24 25 26 27 28 29 30 31 32 33 34 35 36 37 38 39 40 41 42 43 44 45 46 47 48 49 50
000
ASUS45 KCYS 120610
RWRWY

WYOMING REGIONAL WEATHER ROUNDUP
NATIONAL WEATHER SERVICE CHEYENNE WY
1200 AM MDT SAT JUL 12 2014

NOTE:  "FAIR" INDICATES FEW OR NO CLOUDS BELOW 12,000 FEET
WITH NO SIGNIFICANT WEATHER AND/OR OBSTRUCTIONS TO VISIBILITY.

WYZ001-120700-
YELLOWSTONE NATIONAL PARK

CITY           SKY/WX    TMP DP  RH WIND       PRES   REMARKS
LK YELLOWSTONE   N/A     48  46  93 CALM      30.41S
6HR MIN TEMP:  48; 6HR MAX TEMP:  67; 6HR PCP:  0.02;

W YELLOWSTONE  NOT AVBL

$$
WYZ002>013-054>058-071-098>099-120700-
NORTHERN WYOMING

CITY           SKY/WX    TMP DP  RH WIND       PRES   REMARKS
JACKSON        MOCLDY    54  54 100 NE3       30.32R
CODY           CLOUDY    64  54  68 NW5       30.22R
GREYBULL       MOCLDY    66  57  72 SE5       30.16S
6HR MIN TEMP:  66; 6HR MAX TEMP:  85;

WORLAND        MOCLDY    67  53  61 SE7       30.17S
6HR MIN TEMP:  66; 6HR MAX TEMP:  77; 6HR PCP: TRACE;

SHERIDAN       CLOUDY    63  59  87 VRB3      30.13R
6HR MIN TEMP:  63; 6HR MAX TEMP:  78; 6HR PCP:  0.27;

BUFFALO        CLOUDY    67  48  50 S8        30.20S
6HR MIN TEMP:  65; 6HR MAX TEMP:  75;

GILLETTE       CLOUDY    65  55  70 N5        30.17R
6HR MIN TEMP:  65; 6HR MAX TEMP:  69; 6HR PCP: TRACE;

HULETT         FAIR      66  54  63 MISG      30.19
NEWCASTLE      FAIR      61  59  94 E5        30.21

$$
WYZ014>020-022>026-101>103-120700-
CENTRAL WYOMING

CITY           SKY/WX    TMP DP  RH WIND       PRES   REMARKS
BIG PINEY      CLOUDY    61  52  72 NW7       30.34S
6HR MIN TEMP:  61; 6HR MAX TEMP:  70; 6HR PCP: TRACE;

PINEDALE       CLOUDY    59  50  72 CALM      30.34S
DUBOIS         MOCLDY    54  50  87 NW3       30.36F
LANDER         CLOUDY    60  57  89 S3        30.28S
6HR MIN TEMP:  60; 6HR MAX TEMP:  64; 6HR PCP:  0.03;

RIVERTON       CLOUDY    60  59  96 E5        30.28S
6HR MIN TEMP:  60; 6HR MAX TEMP:  62; 6HR PCP:  0.10;

CASPER         CLOUDY    62  56  80 E9        30.26F
6HR MIN TEMP:  62; 6HR MAX TEMP:  73; 6HR PCP:  0.07;

DOUGLAS        CLOUDY    63  55  75 S7        30.26F
6HR MIN TEMP:  63; 6HR MAX TEMP:  66; 6HR PCP:  0.01;


$$
WYZ021-027>030-104>119-120700-
SOUTHERN WYOMING

CITY           SKY/WX    TMP DP  RH WIND       PRES   REMARKS
EVANSTON       CLEAR     61  55  81 E5        30.31S
6HR MIN TEMP:  61; 6HR MAX TEMP:  70;

KEMMERER       MOCLDY    61  50  67 E9        30.35R
FORT BRIDGER   FAIR      61  56  83 E12       30.35S
ROCK SPRINGS   MOCLDY    59  50  72 NE7       30.32R
6HR MIN TEMP:  58; 6HR MAX TEMP:  75; 6HR PCP:  0.06;

DIXON          FAIR      63  57  81 E8        30.28F
RAWLINS        MOCLDY    60  54  80 NE9       30.31S
6HR MIN TEMP:  59; 6HR MAX TEMP:  77;

SARATOGA       MOCLDY    59  54  82 CALM      30.33R
LARAMIE        CLOUDY    58  57  97 W8        30.33F
6HR MIN TEMP:  58; 6HR MAX TEMP:  67; 6HR PCP:  0.67;

CHEYENNE       CLOUDY    60  59  96 NW8       30.31S
6HR MIN TEMP:  60; 6HR MAX TEMP:  76; 6HR PCP:  0.11;

TORRINGTON     CLOUDY    63  61  93 E5        30.20S
6HR MIN TEMP:  62; 6HR MAX TEMP:  75; 6HR PCP:  0.21;


$$



USA.gov is the U.S. government's official web portal to all federal, state and local government web resources and services.